Rochester, MN
on Saturday, September 7, 2013

Saturday
Previous Day Next Day
Daily Summary
 ActualAverageRecord
Temperature
Mean Temperature °F 64°F  
Max Temperature 91°F 75°F 96°F (1913)
Min Temperature 68°F 54°F 34°F (1934)
Degree Days
Heating Degree Days 0 3  
Month to date heating degree days 13 18  
Since 1 July heating degree days 47 56  
Cooling Degree Days 15 3  
Month to date cooling degree days 37 21  
Year to date cooling degree days 593 546  
Growing Degree Days30 (Base °F )  
Moisture
Dew Point 66°F   
Average Humidity 68    
Maximum Humidity 81    
Minimum Humidity 55    
Precipitation
Precipitation 0.00 in 0.12 in 2.39 in (1964)
Month to date precipitation 0.01 0.85  
Year to date precipitation 34.71 25.04  
Snow
Snow 0.00 in 0.00 in 0.00 in (2012)
Month to date snowfall 0.0 0.0  
Since 1 July snowfall 0.0 0.0  
Snow Depth 0.00 in   
Wind
Wind Speed 8 mph   
Max Wind Speed 15 mph   
Max Gust Speed 20 mph   
Visibility 10 miles   
Events     

Key: T is trace of precipitation, MM is missing value
Source: NWS Daily Summary
Time(CDT)TemperatureDew PointHumidity Pressure Visibility Wind DirectionWind SpeedGust SpeedPrecipitationEvents Conditions
12:54 AM 71.1°F 61.0°F 70% 29.93 in 10.0 miles South 6.9 mph - N/A   Clear
1:54 AM 72.0°F 60.1°F 66% 29.91 in 10.0 miles South 9.2 mph - N/A   Overcast
2:54 AM 73.0°F 59.0°F 61% 29.90 in 10.0 miles SSW 9.2 mph - N/A   Mostly Cloudy
3:54 AM 72.0°F 61.0°F 68% 29.90 in 10.0 miles SW 5.8 mph - N/A   Partly Cloudy
4:54 AM 70.0°F 61.0°F 73% 29.89 in 10.0 miles SSW 8.1 mph - N/A   Clear
5:54 AM 70.0°F 62.1°F 76% 29.89 in 10.0 miles SW 10.4 mph - N/A   Clear
6:54 AM 68.0°F 63.0°F 84% 29.91 in 10.0 miles SW 6.9 mph - N/A   Clear
7:54 AM 73.0°F 64.0°F 73% 29.91 in 10.0 miles WSW 8.1 mph - N/A   Partly Cloudy
8:54 AM 75.9°F 64.9°F 69% 29.91 in 10.0 miles WSW 6.9 mph - N/A   Clear
9:54 AM 79.0°F 66.9°F 66% 29.91 in 10.0 miles Variable 3.5 mph - N/A   Clear
10:54 AM 82.0°F 69.1°F 65% 29.92 in 10.0 miles WNW 3.5 mph - N/A   Clear
11:54 AM 84.0°F 70.0°F 63% 29.91 in 10.0 miles Calm Calm - N/A   Clear
12:54 PM 86.0°F 71.1°F 61% 29.90 in 9.0 miles Variable 4.6 mph - N/A   Clear
1:54 PM 89.1°F 71.1°F 55% 29.89 in 10.0 miles North 10.4 mph - N/A   Clear
2:54 PM 89.1°F 71.1°F 55% 29.89 in 10.0 miles NE 10.4 mph - N/A   Clear
3:54 PM 90.0°F 71.1°F 54% 29.89 in 10.0 miles North 13.8 mph - N/A   Partly Cloudy
4:54 PM 89.1°F 71.1°F 55% 29.91 in 10.0 miles NNE 11.5 mph - N/A   Partly Cloudy
5:54 PM 87.1°F 70.0°F 57% 29.91 in 10.0 miles NNE 9.2 mph - N/A   Clear
6:54 PM 84.0°F 70.0°F 63% 29.92 in 10.0 miles NE 5.8 mph - N/A   Clear
7:54 PM 80.1°F 70.0°F 71% 29.93 in 10.0 miles NE 5.8 mph - N/A   Clear
8:54 PM 78.1°F 68.0°F 71% 29.95 in 10.0 miles NNE 8.1 mph - N/A   Clear
9:54 PM 75.9°F 66.0°F 71% 29.96 in 10.0 miles NE 5.8 mph - N/A   Clear
10:54 PM 75.0°F 66.0°F 73% 29.96 in 10.0 miles NE 11.5 mph - N/A   Partly Cloudy
11:54 PM 73.9°F 66.9°F 79% 29.97 in 10.0 miles NE 11.5 mph - N/A   Scattered Clouds
Astronomy
Sunrise:06:40 AM (CDT) Moon Rise:09:01 AM (CDT)9/7
Sunset:07:34 PM (CDT) Moon Set:08:25 PM (CDT)9/7
Moon Phase
Sep. 07 Sep. 12 Sep. 19 Sep. 27 Oct. 05

Copyright © 2017 The Weather Underground, Inc.